Regional Weather Roundup
Issued by NWS Binghamton, NY

Home | Current Version | Previous Version | Text Only | Print | Product List | Glossary On
Versions: 1 2 3 4 5 6 7 8 9 10 11 12 13 14 15 16 17 18 19 20 21 22 23 24 25 26 27 28 29 30 31 32 33 34 35 36 37 38 39 40 41 42 43 44 45 46 47 48 49 50
000
ASUS41 KBGM 020510
RWRBGM

REGIONAL WEATHER ROUNDUP
NATIONAL WEATHER SERVICE BINGHAMTON NY
1200 AM EST TUE MAR 02 2021

Note: "fair" indicates few or no clouds below 12,000 feet with no
significant weather and/or obstructions to visibility.

* = Station(s) that does not report precipitation, such as rain,
snow, etc, also no thunder or fog.

NYZ009-015>018-022>025-036-037-044>046-055>057-062-020600
...Central New York...

CITY           SKY/WX    TMP DP  RH WIND       PRES   REMARKS
Binghamton     MOCLDY    14   4  64 NW20G33   29.93R WCI  -3
Cortland       SNOW      14  10  85 NW17G31   30.02R VSB 1/2 WCI  -3
Dansville      PTCLDY    18   2  49 NW16G30   30.15R WCI   3
Elmira         FLURRIES  19   6  57 W13G28    30.08R WCI   6
Endicott       CLOUDY    18   7  62 NW12G22   30.04R WCI   5
Ithaca         LGT SNOW  14  10  85 NW22G30   30.05R VSB 3/4 WCI  -4
Hamilton       CLOUDY    14   3  62 NW14G23   29.96R WCI  -1
Monticello     SNOW      16  10  79 NW23G36   29.89R VSB 1/2 WCI  -2
Norwich        LGT SNOW  12   3  67 N10G21    29.98R WCI  -1
Oneonta        LGT SNOW  10   5  79 NW14G24   29.87R WCI  -5
Penn Yan       CLOUDY    17   0  47 W14G25    30.08R WCI   3
Rome           HVY SNOW  13   8  81 NW25G35   30.01R VSB 1/4 WCI  -7
Seneca Falls   LGT SNOW  18   9  68 NW16G35   30.12R WCI   3
Sidney         CLOUDY    16   9  73 W15G32    29.98R HAZE    WCI   1
Skaneateles    LGT SNOW  14   7  73 NW16G28   30.04R WCI  -2
Syracuse       CLOUDY    16  -1  47 W20G32    30.07R WCI  -1
$$

PAZ038>040-043-044-047-048-072-020600
...Northeast Pennsylvania...

CITY           SKY/WX    TMP DP  RH WIND       PRES   REMARKS
Hazleton       PTCLDY    23   5  46 W17G26    29.96R WCI   9
Scranton       MOCLDY    24   3  40 W24G39    29.98R WCI   8
Towanda        CLEAR     21  -2  35 W17G26    30.09R WCI   7
$$
&&
KEY
WCI = Wind Chill Index
VSB = Visibility
HX  = Heat Index
$$



USA.gov is the U.S. government's official web portal to all federal, state and local government web resources and services.